Regional Weather Roundup
Issued by NWS

Home | Current Version | Previous Version | Text Only | Print | Product List | Glossary Off
Versions: 1 2 3 4 5 6 7 8 9 10 11 12 13 14 15 16 17 18 19 20 21 22 23 24 25 26 27 28 29 30 31 32 33 34 35 36 37 38 39 40 41 42 43 44 45 46 47 48 49 50

108
ASUS44 KLIX 171105
RWRLA
LOUISIANA WEATHER ROUNDUP
NATIONAL WEATHER SERVICE NEW ORLEANS LA
600 AM CDT WED SEP 17 2014

NOTE: "FAIR" INDICATES FEW OR NO CLOUDS BELOW 12,000 FEET WITH NO
      SIGNIFICANT WEATHER AND/OR OBSTRUCTIONS TO VISIBILITY.
      SKY/WX - SKY CONDITION AND SIGNIFICANT WEATHER.
      TMP - AIR TEMPERATURE.    DP   - DEWPOINT TEMPERATURE.
      RH  - RELATIVE HUMIDITY.  PRES - PRESSURE.
      HX  - HEAT INDEX.         WCI  - WIND CHILL INDEX.

*  THESE STATIONS ARE NOT NWS OR FAA STATIONS AND ARE NOT UNDER
   NWS QUALITY CONTROL.

LAZ040-048-061>063-065-066-069-171200-
SOUTHEAST LOUISIANA

CITY           SKY/WX    TMP DP  RH WIND       PRES   REMARKS
N.O. AUDUBON   NOT AVBL
N.O. INTL ARPT MOCLDY    73  70  90 W6        29.96S
N.O. LAKEFRONT CLOUDY    79  69  71 CALM      29.96S
N.O. DOWNTOWN* FAIR      77  70  78 CALM      29.96S
SLIDELL        CLOUDY    72  70  93 CALM      29.96S
BATON ROUGE    PTCLDY    72  70  93 CALM      29.97S
BOOTHVILLE     LGT RAIN  77  75  93 N3        29.96R FOG
BELLE CHASSE   CLOUDY    75  71  87 CALM      29.95F
BOGALUSA*      FAIR      73  69  89 CALM      29.98R FOG
GALLIANO*      NOT AVBL
NEW ROADS*     FOG       71  70  98 CALM      29.97S VSB 1/2
GONZALES*      CLOUDY    71  71 100 CALM      29.96F FOG
HAMMOND*       NOT AVBL
HOUMA*         MOCLDY    73  70  89 NW3       29.96F
PORT FOURCHON* NOT AVBL

$$

LAZ041-044-053-054-171200-
SOUTHWEST LOUISIANA

CITY           SKY/WX    TMP DP  RH WIND       PRES   REMARKS
LAKE CHARLES   FOG       74  73  97 NE3       29.96S VSB 1
LAFAYETTE      PTCLDY    73  72  96 CALM      29.97S
PATTERSON      MOCLDY    72  72 100 CALM      29.99R
SALT POINT       N/A     75  73  93 CALM      29.96S
NEW IBERIA     MOCLDY    73  71  93 E3        29.98R
CHENAULT AIRPK NOT AVBL

$$

LAZ027-028-171200-
CENTRAL LOUISIANA

CITY           SKY/WX    TMP DP  RH WIND       PRES   REMARKS
FORT POLK      CLOUDY    71  70  96 CALM      29.97F FOG
ALEXANDRIA INT FOG       71  71 100 CALM      29.96S VSB 1/4
ALEXANDRIA     MOCLDY    69  68  96 CALM      29.98R

$$

LAZ001-002-171200-
NORTHWEST LOUISIANA

CITY           SKY/WX    TMP DP  RH WIND       PRES   REMARKS
SHREVEPORT     CLOUDY    73  70  90 CALM      29.97R
BARKSDALE AFB  CLOUDY    71  71 100 S2        29.97S
DTN SHREVEPORT CLOUDY    73  71  93 CALM      29.97S

$$

LAZ014-016-171200-
NORTHEAST LOUISIANA

CITY           SKY/WX    TMP DP  RH WIND       PRES   REMARKS
MONROE         MOCLDY    70  68  93 CALM      29.98R FOG
TALLULAH       MOCLDY    66  65  96 CALM      29.97R

$$




USA.gov is the U.S. government's official web portal to all federal, state and local government web resources and services.